Wind_Speed
2 4 5 2 1 3 2 2 1 4 6 5 7 6 5 3 3 4 5 7 8 6 7 7 8 8 9 9 12 13 13 13 10 11 9 8 6 6 7 9 10 9 8
3 3 5 4 2 3 6 5 4 4 5 6 6 7 6 7 8 6 4 5 7 8 9 8 9 9 10 11 12 14 13 11 13 16 18 10 8 4 7 7 9 9 9
6 3 3 2 4 5 6 7 7 6 6 6 7 6 5 8 10 10 10 10 8 8 8 8 9 9 8 9 10 11 12 13 14 13 15 11 9 9 9 8 7 7 9
10 8 6 5 5 6 8 7 8 7 7 7 6 5 2 5 11 10 4 8 8 10 10 9 9 10 10 9 10 9 9 8 11 14 11 10 9 11 11 8 7 13 11
14 14 11 9 9 8 9 10 10 9 7 6 5 4 1 6 10 11 5 4 5 9 10 9 10 11 11 11 10 10 8 8 9 10 12 13 11 12 12 12 15 13 12
19 16 18 13 13 13 11 12 12 10 8 8 6 3 0 5 9 11 9 8 8 8 11 9 11 10 11 10 10 10 9 9 10 11 12 13 13 17 15 16 17 14 12
27 23 23 21 18 17 16 15 14 11 12 10 7 5 2 4 6 8 12 14 11 11 10 11 12 9 8 10 10 8 8 9 9 9 10 12 13 13 15 15 15 15 14
25 29 33 31 26 23 20 19 16 14 14 13 10 8 5 4 5 7 11 15 7 8 10 12 12 9 8 8 8 7 8 8 9 9 9 9 10 11 13 15 14 19 16
33 31 39 36 37 30 26 22 20 18 17 14 12 11 8 6 3 5 9 10 11 3 7 10 14 11 10 9 8 10 10 10 9 9 9 9 11 12 12 13 13 16 15
32 38 40 45 42 41 33 24 21 20 19 17 15 13 11 9 5 3 6 8 9 6 4 9 10 10 10 12 11 9 6 7 8 10 12 12 11 13 12 13 14 15 15
32 33 43 43 44 47 35 21 21 23 22 20 17 16 14 12 8 5 5 7 7 8 5 6 10 11 9 10 12 10 7 8 9 10 11 11 12 11 11 12 13 13 13
28 36 41 46 45 62 29 25 25 27 25 20 20 17 16 11 11 9 6 7 8 9 5 8 8 7 7 6 7 13 10 10 9 9 9 10 12 11 9 7 9 10 12
27 30 32 35 44 50 41 29 30 26 23 21 22 18 16 13 12 10 9 9 9 7 8 5 7 8 11 10 9 9 10 9 10 10 10 12 11 11 8 6 7 9 10
31 33 34 33 38 33 7 21 24 21 17 20 22 18 17 16 11 10 11 11 11 10 8 7 8 8 10 10 11 11 15 14 12 13 13 12 15 17 20 22 20 20 19
32 29 30 33 34 24 8 7 13 21 20 19 19 15 10 10 12 14 11 12 11 10 9 10 11 14 13 14 14 13 13 17 15 18 18 19 24 23 22 23 26 29 25
25 21 22 22 15 4 7 14 17 19 18 17 14 12 13 15 16 15 13 12 9 9 8 10 10 13 15 15 16 16 17 18 19 22 23 24 23 23 24 29 24 28 28
20 19 18 18 13 14 15 19 24 24 21 17 15 14 15 14 16 15 11 10 10 8 8 7 7 8 11 13 13 13 16 20 23 23 25 21 24 27 25 28 33 30 31
19 18 19 21 23 24 25 25 27 27 18 18 17 16 13 13 14 12 11 11 11 8 7 7 5 5 6 7 9 10 9 8 10 14 17 18 21 19 22 22 23 25 29
19 19 22 28 27 27 24 25 24 22 21 19 18 16 11 9 10 8 7 6 8 8 8 11 9 10 7 7 9 11 10 9 10 11 13 14 16 18 19 20 22 24 26
5 4 6 4 6 21 32 20 16 18 20 22 19 19 13 15 10 8 6 6 6 7 12 10 12 14 10 13 14 15 14 14 15 17 18 19 21 22 23 24 25 24 25
4 5 6 13 11 16 12 20 23 23 22 20 10 5 9 8 7 5 6 10 11 13 12 16 19 12 16 19 19 18 19 20 19 19 21 23 25 25 25 24 26 30 29
3 5 7 5 3 5 5 11 10 12 12 12 12 5 6 5 7 9 12 10 10 13 19 21 19 20 16 18 19 21 19 17 18 21 21 19 18 18 18 18 20 21 23
6 7 6 6 9 10 8 7 7 6 4 2 3 5 9 8 15 15 9 8 14 22 24 20 20 18 17 17 17 15 14 15 15 15 15 17 18 18 20 21 22 23 24
6 6 6 4 5 6 6 8 8 9 12 14 15 17 17 15 12 11 15 14 23 20 15 14 14 13 11 10 11 12 13 14 15 17 18 18 19 19 19 20 21 23 24
6 4 4 6 4 3 6 7 8 9 11 12 15 13 12 13 16 14 17 17 16 13 8 6 7 8 10 11 12 13 13 12 13 15 17 18 20 21 22 24 26 26 26
2 2 3 4 6 7 8 9 13 10 11 13 15 20 20 19 19 14 10 9 10 11 6 6 9 11 10 10 10 10 12 14 15 17 19 22 23 23 23 23 24 25 27
Wind_Direction
333 14 346 356 85 153 146 121 255 320 327 330 328 337 331 344 337 297 277 265 259 245 262 253 248 238 247 253 255 257 259 256 260 263 235 237 240 242 224 224 221 215 216
292 10 0 335 284 198 176 189 214 230 269 286 288 300 298 300 300 294 292 279 269 255 249 246 249 249 247 252 256 249 244 257 263 254 253 230 236 233 272 251 226 219 236
284 286 328 312 275 248 213 207 215 226 246 257 261 262 279 314 333 305 284 282 282 265 252 244 242 245 248 250 258 254 247 248 251 229 237 226 226 232 249 245 239 250 238
273 274 265 273 254 249 249 227 228 237 247 256 258 247 313 4 350 320 290 261 264 268 260 243 243 247 250 253 255 256 253 256 251 207 220 240 249 233 235 258 254 237 247
263 270 274 269 269 245 253 248 237 237 241 233 202 191 324 357 7 5 317 283 263 282 270 249 239 238 241 246 255 255 246 241 253 259 244 258 254 240 248 251 252 264 252
270 269 274 275 277 275 254 250 253 249 232 214 212 212 201 16 28 16 7 301 248 233 261 262 253 247 245 247 251 257 253 247 248 244 244 247 237 253 248 249 244 248 265
278 279 278 274 267 268 263 255 252 255 238 220 227 239 296 344 350 5 360 355 274 257 255 260 249 257 257 248 247 250 257 251 247 249 249 250 250 242 247 251 259 246 248
291 279 274 270 265 258 254 249 244 246 244 231 219 238 259 289 316 353 5 4 349 251 242 262 260 237 215 240 240 242 247 248 246 245 247 252 257 261 263 262 249 262 252
269 276 280 275 272 255 247 239 237 234 237 241 234 246 256 259 283 352 4 8 22 295 235 237 242 239 241 244 234 236 233 238 243 250 257 266 270 270 271 272 268 262 265
283 270 285 263 268 257 234 229 232 234 232 238 239 247 260 267 267 316 343 4 23 16 259 235 246 239 257 267 255 244 247 253 260 265 268 269 274 279 277 271 267 270 266
271 270 273 264 265 323 201 215 230 234 232 236 240 244 252 255 268 283 321 352 13 10 351 246 253 260 254 282 263 247 263 244 244 254 264 274 283 278 268 265 266 267 267
281 279 278 286 291 272 281 208 221 225 232 235 238 243 253 258 273 278 307 333 351 346 341 307 265 235 235 250 247 247 262 268 263 248 251 267 275 271 271 275 280 279 279
285 288 289 291 291 295 278 220 214 219 229 239 244 243 255 256 260 272 288 306 319 323 311 286 274 227 233 249 257 262 256 263 271 268 263 263 258 255 250 259 282 303 295
288 290 292 299 307 322 319 189 211 222 247 245 251 247 245 252 264 252 265 281 298 301 290 268 257 233 230 237 232 248 248 254 261 267 267 258 265 275 283 284 282 283 283
287 287 294 304 316 332 333 216 261 249 245 254 243 238 247 262 267 258 259 275 281 283 281 265 240 236 235 242 250 253 255 248 249 253 254 259 274 282 279 284 285 291 283
279 276 277 289 305 291 224 242 254 245 237 229 234 242 258 260 271 267 269 272 266 263 264 271 269 247 248 259 251 254 262 253 257 259 265 265 264 269 275 284 281 284 286
280 284 276 269 248 229 230 238 240 237 232 235 229 241 249 261 261 256 260 261 261 258 255 263 275 272 270 276 274 267 267 261 262 271 277 272 272 274 280 266 280 281 278
250 264 264 258 267 243 242 228 221 224 217 219 222 229 234 236 241 244 241 243 248 260 272 268 258 263 282 303 309 311 313 301 282 280 284 284 277 272 271 277 268 275 268
275 262 266 264 259 258 235 224 196 190 168 196 197 191 185 191 197 218 237 269 288 288 281 280 273 276 303 318 316 312 306 302 298 290 284 281 282 283 284 285 283 283 284
286 171 208 172 245 241 250 225 239 192 193 193 192 190 194 227 253 243 269 285 286 293 312 309 314 306 284 296 299 300 296 296 295 293 290 290 288 285 282 280 279 275 277
55 0 315 272 235 258 249 254 248 242 201 180 204 238 222 141 214 263 295 314 302 297 307 292 309 292 285 291 300 295 292 294 293 291 290 291 292 292 287 284 280 280 282
274 198 176 132 120 162 203 198 185 187 209 215 222 242 317 306 255 292 298 297 273 298 310 300 299 298 297 292 296 302 301 298 298 300 303 302 303 303 304 302 298 299 297
279 243 228 220 199 209 211 197 209 181 167 227 263 303 315 286 298 312 291 285 288 307 305 300 297 301 303 298 296 300 302 303 304 304 306 307 306 304 304 302 301 301 301
300 275 279 233 222 205 225 236 241 236 253 281 293 293 296 294 271 257 282 297 289 290 289 290 297 302 303 304 309 308 307 307 305 303 304 304 304 306 306 305 304 304 303
305 295 275 248 233 234 218 204 235 248 245 266 270 276 256 265 296 303 288 287 284 287 299 304 286 283 297 300 297 296 297 301 303 306 308 308 308 309 309 308 308 308 307
10 78 135 205 218 215 236 230 240 238 248 253 265 251 264 274 283 288 290 286 287 291 304 317 297 296 295 294 302 309 314 315 315 317 316 313 310 312 314 312 311 311 310
Height
3150 3149 3148 3147 3146 3146 3146 3146 3146 3146 3146 3145 3145 3145 3145 3144 3142 3142 3142 3142 3143 3143 3144 3144 3145 3145 3145 3145 3146 3147 3148 3149 3151 3151 3153 3153 3154 3155 3156 3157 3158 3159 3160
3147 3147 3146 3146 3145 3145 3143 3143 3143 3143 3143 3143 3143 3142 3142 3141 3141 3140 3140 3139 3140 3140 3140 3141 3142 3142 3142 3142 3143 3143 3144 3145 3146 3146 3145 3150 3151 3153 3154 3155 3156 3157 3158
3144 3144 3144 3143 3144 3143 3141 3140 3140 3140 3140 3139 3138 3139 3139 3138 3137 3135 3135 3136 3136 3135 3136 3137 3138 3139 3139 3140 3139 3140 3141 3141 3141 3141 3142 3146 3148 3149 3151 3153 3154 3154 3155
3141 3141 3141 3141 3141 3141 3141 3140 3138 3138 3137 3136 3136 3136 3136 3135 3133 3130 3130 3131 3131 3132 3132 3132 3133 3135 3135 3136 3136 3137 3138 3139 3138 3135 3139 3141 3143 3145 3147 3149 3151 3150 3152
3138 3137 3138 3138 3139 3139 3140 3140 3138 3136 3135 3134 3134 3134 3132 3131 3128 3127 3126 3127 3127 3128 3128 3128 3129 3130 3131 3132 3133 3134 3136 3136 3137 3137 3138 3139 3140 3142 3144 3145 3146 3147 3148
3131 3133 3133 3134 3135 3136 3137 3137 3138 3136 3134 3133 3132 3130 3129 3128 3126 3124 3122 3122 3122 3122 3123 3124 3125 3126 3126 3128 3129 3130 3131 3132 3134 3134 3136 3136 3137 3139 3139 3140 3141 3142 3143
3130 3134 3132 3131 3130 3129 3131 3133 3134 3134 3133 3132 3131 3129 3127 3125 3124 3121 3120 3118 3117 3119 3118 3119 3122 3123 3123 3123 3125 3126 3128 3128 3129 3130 3132 3133 3134 3135 3135 3136 3137 3137 3139
3129 3128 3122 3122 3123 3122 3122 3122 3126 3129 3130 3130 3128 3127 3125 3123 3122 3119 3117 3114 3112 3114 3115 3116 3117 3118 3119 3119 3120 3122 3123 3125 3126 3127 3129 3130 3131 3131 3131 3132 3132 3132 3133
3118 3116 3120 3117 3116 3113 3112 3113 3117 3119 3124 3126 3126 3125 3124 3121 3119 3116 3114 3113 3110 3110 3111 3113 3114 3114 3113 3115 3117 3118 3119 3121 3123 3124 3126 3127 3127 3127 3127 3127 3127 3127 3126
3112 3111 3106 3101 3101 3100 3094 3102 3110 3115 3116 3119 3121 3122 3121 3118 3116 3114 3113 3110 3107 3107 3107 3108 3110 3111 3112 3112 3114 3115 3117 3119 3120 3122 3122 3123 3123 3123 3123 3123 3123 3124 3123
3104 3103 3094 3082 3071 3047 3046 3089 3094 3107 3113 3113 3115 3118 3116 3113 3112 3111 3111 3107 3104 3104 3106 3106 3107 3108 3109 3109 3110 3111 3111 3113 3115 3116 3117 3118 3118 3118 3118 3117 3118 3119 3119
3097 3091 3089 3082 3077 3066 3061 3078 3092 3101 3107 3106 3107 3109 3114 3109 3108 3108 3107 3105 3101 3101 3102 3103 3103 3104 3105 3106 3106 3106 3107 3108 3109 3110 3111 3112 3112 3113 3113 3113 3113 3115 3115
3091 3089 3087 3087 3076 3068 3052 3075 3085 3091 3097 3097 3101 3102 3105 3104 3104 3103 3103 3101 3098 3097 3098 3098 3100 3099 3100 3101 3103 3102 3103 3104 3105 3106 3106 3107 3108 3109 3109 3109 3109 3109 3110
3082 3081 3082 3085 3075 3060 3057 3056 3072 3081 3085 3087 3095 3097 3097 3097 3098 3098 3099 3099 3094 3092 3093 3092 3093 3095 3096 3097 3097 3098 3098 3099 3100 3102 3103 3103 3103 3102 3102 3102 3102 3102 3103
3069 3068 3065 3065 3057 3057 3055 3061 3071 3078 3083 3086 3088 3090 3089 3090 3093 3094 3094 3096 3091 3088 3087 3086 3086 3088 3090 3091 3092 3092 3092 3092 3093 3095 3096 3097 3097 3096 3095 3096 3095 3095 3095
3057 3059 3057 3055 3056 3057 3061 3065 3069 3073 3077 3080 3083 3083 3083 3085 3088 3089 3089 3091 3087 3082 3081 3081 3080 3082 3084 3085 3086 3086 3087 3087 3088 3088 3090 3090 3090 3089 3090 3088 3087 3087 3087
3049 3049 3050 3051 3051 3054 3056 3061 3064 3067 3070 3074 3077 3074 3078 3080 3082 3083 3082 3084 3082 3077 3076 3075 3076 3076 3077 3079 3079 3080 3080 3080 3080 3079 3082 3082 3081 3081 3080 3082 3081 3079 3078
3046 3044 3046 3047 3051 3054 3054 3056 3056 3057 3060 3066 3068 3072 3074 3075 3077 3078 3078 3079 3077 3074 3073 3073 3073 3073 3073 3074 3074 3074 3074 3074 3074 3074 3074 3073 3072 3072 3071 3071 3070 3070 3068
3041 3041 3041 3041 3044 3043 3043 3040 3043 3048 3055 3060 3062 3066 3067 3070 3070 3072 3075 3076 3075 3069 3070 3070 3070 3069 3069 3070 3070 3071 3071 3070 3069 3069 3069 3068 3068 3067 3066 3065 3064 3062 3060
3041 3040 3040 3040 3038 3040 3042 3047 3044 3046 3052 3056 3057 3058 3060 3063 3065 3068 3069 3070 3067 3066 3064 3065 3065 3065 3066 3065 3065 3066 3066 3064 3063 3063 3063 3062 3061 3060 3059 3057 3055 3054 3052
3041 3040 3042 3042 3041 3041 3042 3046 3048 3049 3051 3052 3053 3055 3057 3059 3060 3064 3063 3064 3065 3062 3060 3061 3062 3062 3061 3060 3060 3059 3058 3057 3057 3057 3056 3054 3052 3052 3050 3048 3047 3045 3042
3044 3042 3039 3040 3042 3042 3043 3045 3048 3049 3052 3052 3052 3054 3055 3057 3058 3059 3060 3061 3059 3057 3056 3057 3057 3057 3055 3054 3053 3053 3052 3050 3049 3048 3048 3046 3045 3044 3042 3040 3039 3037 3035
3042 3041 3041 3042 3041 3043 3042 3044 3046 3048 3048 3049 3051 3053 3054 3057 3056 3057 3057 3056 3055 3055 3053 3051 3051 3051 3050 3048 3047 3046 3045 3044 3044 3043 3042 3040 3040 3038 3036 3035 3032 3031 3028
3037 3036 3037 3037 3038 3040 3041 3043 3043 3045 3048 3049 3050 3051 3051 3053 3053 3053 3051 3051 3052 3051 3049 3047 3047 3045 3043 3043 3042 3042 3041 3040 3039 3038 3037 3036 3035 3033 3031 3028 3026 3024 3022
3035 3035 3035 3035 3036 3037 3039 3042 3044 3044 3043 3045 3049 3050 3048 3047 3046 3046 3048 3047 3044 3044 3045 3046 3045 3042 3041 3040 3039 3039 3038 3036 3035 3034 3032 3031 3029 3027 3025 3021 3018 3017 3013
3034 3034 3035 3036 3038 3039 3039 3039 3040 3042 3041 3043 3044 3043 3044 3044 3043 3044 3043 3041 3041 3040 3042 3043 3040 3038 3038 3037 3036 3034 3033 3032 3030 3029 3027 3025 3023 3020 3018 3014 3011 3008 3004